Regional Weather Roundup
Issued by NWS

Home | Current Version | Previous Version | Text Only | Print | Product List | Glossary On
Versions: 1 2 3 4 5 6 7 8 9 10 11 12 13 14 15 16 17 18 19 20 21 22 23 24 25 26 27 28 29 30 31 32 33 34 35 36 37 38 39 40 41 42 43 44 45 46 47 48 49 50
000
ASUS44 KFWD 281803
RWRTX
NORTH TEXAS HOURLY WEATHER ROUNDUP
NATIONAL WEATHER SERVICE FORT WORTH TX
100 PM CDT WED JUN 28 2017

NOTE: "FAIR" INDICATES FEW OR NO CLOUDS BELOW 12,000 FEET WITH NO
SIGNIFICANT WEATHER AND/OR OBSTRUCTIONS TO VISIBILITY.

TXZ118-119-281900-
DALLAS/FORT WORTH METROPLEX

CITY           SKY/WX    TMP DP  RH WIND       PRES   REMARKS
DFW AIRPORT    MOSUNNY   87  71  58 SE10      29.93S HX  93
6HR MIN TEMP:  74; 6HR MAX TEMP:  87;

DALLAS LOVE    MOSUNNY   87  69  54 S13       29.94S HX  91
6HR MIN TEMP:  74; 6HR MAX TEMP:  87;

FTW MEACHAM    PTSUNNY   87  71  58 SE10      29.93S HX  93
6HR MIN TEMP:  74; 6HR MAX TEMP:  87;

DAL-EXECUTIVE  MOSUNNY   84  70  62 SE17      29.94S
6HR MIN TEMP:  71; 6HR MAX TEMP:  86;

FTW-ALLIANCE   MOSUNNY   85  70  60 S10G16    29.93S
6HR MIN TEMP:  72; 6HR MAX TEMP:  86;

FTW-NAS-JRB    MOSUNNY   86  69  56 S10       29.94S HX  90
FTW-SPINKS     PTSUNNY   86  70  58 SE10      29.96S HX  90
ARLINGTON      PTSUNNY   85  70  60 SE14G20   29.94S
6HR MIN TEMP:  73; 6HR MAX TEMP:  86;

GRAND PRAIRIE  MOSUNNY   84  66  54 S9        29.95F
ADDISON        PTSUNNY   84  70  61 S10G20    29.95S
MESQUITE       PTSUNNY   84  68  58 SE9G16    29.96S
LANCASTER      MOSUNNY   85  69  59 SE13      29.96S
6HR MIN TEMP:  70; 6HR MAX TEMP:  85;

$$

TXZ091>094-102>105-117-120-121-131>134-281900-
NORTH CENTRAL TEXAS

CITY           SKY/WX    TMP DP  RH WIND       PRES   REMARKS
SHRMAN/DENISON PTSUNNY   84  69  60 S14       29.96S
6HR MIN TEMP:  72; 6HR MAX TEMP:  86;

GAINESVILLE    MOSUNNY   84  70  61 S9        29.96S
6HR MIN TEMP:  71; 6HR MAX TEMP:  85;

BOWIE          SUNNY     85  70  60 SE12G18   29.93S HX  90
6HR MIN TEMP:  71; 6HR MAX TEMP:  85;

BRIDGEPORT     MOSUNNY   85  67  54 S8G17     29.95S
6HR MIN TEMP:  69; 6HR MAX TEMP:  85;

DECATUR        MOSUNNY   83  68  60 S12       29.95S
6HR MIN TEMP:  72; 6HR MAX TEMP:  84;

DENTON         MOSUNNY   86  71  60 SE15      29.94S HX  91
6HR MIN TEMP:  72; 6HR MAX TEMP:  86;

MCKINNEY       PTSUNNY   85  72  65 S15G22    29.95S HX  91
6HR MIN TEMP:  72; 6HR MAX TEMP:  85;

BONHAM         PTSUNNY   84  70  61 SE10      29.96S
GREENVILLE     SUNNY     90  68  48 S13       29.96F HX  93
ROCKWALL       PTSUNNY   85  70  61 SE9       29.96S
6HR MIN TEMP:  72; 6HR MAX TEMP:  85;

TERRELL        PTSUNNY   85  70  60 S12       29.96F
6HR MIN TEMP:  72; 6HR MAX TEMP:  86;

WAXAHACHIE     CLOUDY    85  71  62 SE12      29.96F
6HR MIN TEMP:  70; 6HR MAX TEMP:  85;

CLEBURNE       MOSUNNY   84  72  65 S10G18    29.97S
GRANBURY       PTSUNNY   86  68  54 S10       29.95S HX  90
6HR MIN TEMP:  73; 6HR MAX TEMP:  86;

$$

TXZ083>090-098>101-113>116-127>130-139>142-154-155-281900-
WESTERN NORTH TEXAS

CITY           SKY/WX    TMP DP  RH WIND       PRES   REMARKS
WICHITA FALLS  SUNNY     87  67  51 S21       29.87F HX  90
6HR MIN TEMP:  71; 6HR MAX TEMP:  87;

WF-KICKAPOO    SUNNY     88  67  50 S18G28    29.91S HX  91
6HR MIN TEMP:  71; 6HR MAX TEMP:  88;

VERNON         SUNNY     91  57  30 S20G25    29.86F HX  90
ABILENE        SUNNY     87  65  47 S14G23    29.92F
6HR MIN TEMP:  69; 6HR MAX TEMP:  87;

ABILENE-DYESS  SUNNY     89  68  49 S14       29.90F HX  92
6HR MIN TEMP:  70; 6HR MAX TEMP:  89;

GRAHAM         SUNNY     87  67  51 SE8       29.89F HX  90
6HR MIN TEMP:  71; 6HR MAX TEMP:  87;

BRECKENRIDGE   SUNNY     87  66  49 SE16      29.91F HX  90
6HR MIN TEMP:  70; 6HR MAX TEMP:  87;

CISCO          SUNNY     84  68  58 SE12G18   29.95S
EASTLAND       MOSUNNY   84  69  60 SE15G22   29.94S
6HR MIN TEMP:  68; 6HR MAX TEMP:  85;

RANGER         MOSUNNY   82  68  61 SE16      29.95F
6HR MIN TEMP:  65; 6HR MAX TEMP:  87;

MINERAL WELLS  MOSUNNY   87  68  52 S14       29.92F HX  90
6HR MIN TEMP:  72; 6HR MAX TEMP:  87;

STEPHENVILLE   MOSUNNY   83  67  58 SE10      29.99S
6HR MIN TEMP:  69; 6HR MAX TEMP:  83;

COMANCHE       PTSUNNY   83  69  64 S13       29.97S
6HR MIN TEMP:  68; 6HR MAX TEMP:  83;

BROWNWOOD      MOSUNNY   84  68  58 SE14      29.95S
COLEMAN        SUNNY     87  64  47 S10G16    29.95S
6HR MIN TEMP:  66; 6HR MAX TEMP:  87;

$$

TXZ143>147-156>162-174-175-281900-
CENTRAL TEXAS

CITY           SKY/WX    TMP DP  RH WIND       PRES   REMARKS
WACO           PTSUNNY   84  71  65 S9        29.94F
6HR MIN TEMP:  71; 6HR MAX TEMP:  86;

WACO-MCGREGOR  PTSUNNY   85  70  60 SE13      29.95S
6HR MIN TEMP:  70; 6HR MAX TEMP:  86;

HILLSBORO      PTSUNNY   85  71  63 S9        29.95F HX  91
6HR MIN TEMP:  71; 6HR MAX TEMP:  86;

CORSICANA      MOSUNNY   87  71  58 SE13      29.97S HX  93
6HR MIN TEMP:  73; 6HR MAX TEMP:  88;

MEXIA          MOSUNNY   86  69  57 E7        29.95S
6HR MIN TEMP:  68; 6HR MAX TEMP:  86;

HEARNE         PTSUNNY   84  73  68 E8        29.95S HX  90
6HR MIN TEMP:  69; 6HR MAX TEMP:  84;

CAMERON        PTSUNNY   86  71  60 SE10      29.94S HX  91
6HR MIN TEMP:  70; 6HR MAX TEMP:  86;

TEMPLE         PTSUNNY   87  69  54 E12G18    29.95S HX  91
KILLEEN        PTSUNNY   83  69  61 E12       29.94F
6HR MIN TEMP:  69; 6HR MAX TEMP:  85;

KILLEEN-SKYLRK CLOUDY    84  71  65 S7        29.95F
6HR MIN TEMP:  69; 6HR MAX TEMP:  84; 6HR PCP:  0.16;

FORT HOOD      PTSUNNY   83  70  63 S5        29.92F
6HR MIN TEMP:  68; 6HR MAX TEMP:  83; 6HR PCP: TRACE;

HAMILTON       MOSUNNY   85  69  58 S10       29.98S
6HR MIN TEMP:  68; 6HR MAX TEMP:  85;

LAMPASAS       PTSUNNY   82  71  69 SE7       29.96S
6HR MIN TEMP:  68; 6HR MAX TEMP:  82;

$$

TXZ095>097-106>112-122>126-135>138-148>153-164>167-281900-
EAST TEXAS

CITY           SKY/WX    TMP DP  RH WIND       PRES   REMARKS
PARIS            N/A     85  72  65 SE10      29.97F HX  91
6HR MIN TEMP:  71; 6HR MAX TEMP:  86;

SULPHUR SPRNGS PTSUNNY   86  69  57 S7        29.99S HX  90
6HR MIN TEMP:  72; 6HR MAX TEMP:  86;

MOUNT PLEASANT SUNNY     86  69  56 SE8       29.99S HX  90
6HR MIN TEMP:  69; 6HR MAX TEMP:  86;

GILMER         PTSUNNY   85  69  58 E7        29.97F THUNDER
6HR MIN TEMP:  69; 6HR MAX TEMP:  85;

MINEOLA        MOSUNNY   86  72  62 SE7       29.96F HX  92
TYLER          PTSUNNY   86  70  58 SE10G16   29.97S HX  90
6HR MIN TEMP:  71; 6HR MAX TEMP:  86;

LONGVIEW       MOSUNNY   86  69  56 E9        29.97F HX  90
6HR MIN TEMP:  71; 6HR MAX TEMP:  86;

MARSHALL       MOSUNNY   85  68  56 S6        30.00S
6HR MIN TEMP:  67; 6HR MAX TEMP:  85;

ATHENS         PTSUNNY   82  68  61 E7        29.95F
PALESTINE      MOSUNNY   87  71  58 SE9       29.97S HX  92
JACKSONVILLE   MOSUNNY   85  70  60 SE7       30.00S
HENDERSON      MOSUNNY   86  70  59 SE9       29.99S HX  90
6HR MIN TEMP:  69; 6HR MAX TEMP:  86;

CENTER         PTCLDY    88  68  50 E8        30.00S HX  92
6HR MIN TEMP:  73; 6HR MAX TEMP:  88;

NACOGDOCHES    PTSUNNY   84  72  65 SE10      29.95F
6HR MIN TEMP:  68; 6HR MAX TEMP:  84;

LUFKIN         MOSUNNY   86  70  58 SE14G20   29.96F HX  90
6HR MIN TEMP:  70; 6HR MAX TEMP:  87;

$$

SUPPLEMENTAL OBSERVATIONS (NWS FORT WORTH AREA)

CITY           SKY/WX    TMP DP  RH WIND       PRES   REMARKS
$$

SUPPLEMENTAL OBSERVATIONS (NWS NORMAN AREA)

CITY           SKY/WX    TMP DP  RH WIND       PRES   REMARKS
GOODLETT         N/A     93  57  29 S22G29    29.84F HX  91
ODELL            N/A     90  65  43 S18       29.86F HX  91
CROWELL          N/A     92  64  39 S20       29.86S HX  93
KNOX CITY        N


USA.gov is the U.S. government's official web portal to all federal, state and local government web resources and services.